#timestamp,LO_Frequency,Hit,StdDev 
1537657215.8,286046999.4,N
1537657235.7,286047002.3,N
1537657255.5,286047002.1,N
1537657275.3,286047001.5,N
1537657295.2,286047001.5,N
1537657315.0,286047002.0,N
1537657315.9,286047002.0,N
1537657335.8,286047003.5,N
1537657355.6,286047006.0,N
1537657375.4,286047005.4,N
1537657395.3,286047007.4,N
1537657415.1,286047006.8,N
1537657435.9,286047009.2,Y
1537657455.7,286047006.9,P
1537657475.5,286047008.5,P
1537657495.4,286047007.6,N
1537657515.2,286047003.0,N
1537657535.0,286047004.9,N
1537657535.9,286047004.9,N
1537657555.8,286047004.7,N
1537657575.6,286047003.0,N
1537657595.5,286047003.0,N
1537657615.3,286047005.0,N
1537657635.1,286047004.6,N
1537657655.9,286047005.4,N
1537657675.7,286047005.5,N
1537657695.5,286047004.6,N
1537657715.4,286047006.6,Y
1537657735.2,286047004.0,P
1537657755.1,286047003.7,P
1537657756.0,286047003.7,P
1537657775.8,286047005.5,Y
1537657795.6,286047004.4,P
1537657815.5,286047003.8,P
1537657835.3,286047001.4,P
1537657855.1,286047004.4,Y
1537657875.9,286046998.3,P
1537657895.7,286046998.3,N
1537657915.6,286046997.1,N
1537657935.4,286046997.0,N
1537657955.2,286046999.1,N
1537657975.1,286046998.4,N
1537657976.0,286046998.4,N
1537657995.8,286047002.3,N
1537658015.7,286046998.2,N
1537658035.5,286046998.4,N
1537658055.3,286047001.2,N
1537658075.2,286047000.8,N
1537658095.9,286046998.1,N
1537658115.7,286047000.3,N
1537658135.6,286047000.9,N
1537658155.4,286047000.1,N
1537658175.3,286047002.0,N
1537658195.1,286047001.7,N
1537658196.0,286047001.7,N
1537658215.8,286047002.0,N
1537658235.7,286047002.5,N
1537658255.5,286047002.8,N
1537658275.4,286047001.3,N
1537658295.2,286047003.3,N
1537658315.0,286047005.6,N
1537658315.9,286047005.6,N
1537658335.8,286047005.6,N
1537658355.6,286047003.1,N
1537658375.4,286047005.7,N
1537658395.3,286047003.6,N
1537658415.1,286047003.7,N
1537658435.9,286047003.0,N
1537658455.7,286047003.9,N
1537658475.5,286047001.9,N
1537658495.4,286047004.2,N
1537658515.2,286047003.7,N
1537658535.0,286047005.3,N
1537658535.9,286047005.3,N
1537658555.8,286047005.8,N
1537658575.6,286047005.0,N
1537658595.5,286047006.9,Y
1537658615.3,286047004.9,P
1537658635.1,286047006.9,P
1537658655.9,286047003.6,N
1537658675.7,286047003.8,N
1537658695.5,286047003.3,N
1537658715.4,286047003.3,N
1537658735.2,286047005.8,Y
1537658755.1,286046998.6,P
1537658756.0,286046998.6,N
1537658775.8,286046999.9,N
1537658795.6,286047002.4,N
1537658815.5,286047002.0,N
1537658835.3,286047000.0,N
1537658855.1,286047002.7,N
1537658875.9,286047000.9,N
1537658895.7,286046998.1,N
1537658915.5,286047000.9,N
1537658935.4,286047002.4,N
1537658955.2,286047002.7,N
1537658975.1,286047002.8,N
1537658976.0,286047002.8,N
1537658995.8,286047003.9,N
1537659015.6,286047001.7,N
1537659035.5,286047002.7,N
1537659055.3,286047001.6,N
1537659075.1,286047004.2,N
1537659095.9,286047003.8,N
1537659115.7,286047005.6,Y
1537659135.6,286047001.7,P
1537659155.4,286047004.4,P
1537659175.2,286047000.7,N
1537659195.1,286047000.6,N
1537659196.0,286047000.6,N
1537659215.8,286046999.8,N
1537659235.7,286046999.8,N
1537659255.5,286046998.2,N
1537659275.3,286047001.1,N
1537659295.2,286047000.5,N
1537659315.0,286047001.0,N
1537659315.9,286047001.0,N
1537659335.8,286047002.5,N
1537659355.6,286047001.9,N
1537659375.4,286047004.1,Y
1537659395.3,286047000.2,P
1537659415.1,286047001.6,P
1537659435.8,286047004.0,P
1537659455.7,286047005.6,Y
1537659475.5,286047003.9,P
1537659495.4,286047001.4,N
1537659515.2,286047003.6,P
1537659535.0,286047001.7,N
1537659535.9,286047001.7,N
1537659555.8,286047001.8,N
1537659575.6,286046999.8,N
1537659595.5,286047000.4,N
1537659615.3,286047002.3,N
1537659635.1,286047000.6,N
1537659655.9,286047000.9,N
1537659675.7,286046999.7,N
1537659695.5,286047002.1,N
1537659715.4,286047001.6,N
1537659735.2,286047001.7,N
1537659755.1,286047002.3,N
1537659756.0,286047002.3,N
1537659775.8,286047002.4,N
1537659795.6,286047001.9,N
1537659815.5,286047003.0,N
1537659835.3,286047001.7,N
1537659855.1,286047002.1,N
1537659875.9,286047001.6,N
1537659895.7,286047001.8,N
1537659915.6,286047004.2,Y
1537659935.4,286047001.5,P
1537659955.2,286047002.1,P
1537659975.1,286047002.8,P
1537659976.0,286047002.8,Y
1537659995.8,286047002.6,P
1537660015.7,286047001.6,P
1537660035.5,286047001.4,P
1537660055.3,286047003.5,Y
1537660075.2,286047000.6,P
1537660095.0,286047000.9,N
1537660095.9,286047000.9,N
1537660115.8,286047002.3,Y
1537660135.6,286046998.3,P
1537660155.4,286046999.4,N
1537660175.3,286046998.7,N
1537660195.1,286046998.8,N
1537660215.8,286046999.0,N
1537660235.7,286046999.7,N
1537660255.5,286046999.9,N
1537660275.4,286047000.4,N
1537660295.2,286047002.5,N
1537660315.0,286047001.3,N
1537660315.9,286047001.3,N
1537660335.8,286047002.2,N
1537660355.6,286047002.3,N
1537660375.4,286047004.0,N
1537660395.3,286047003.8,N
1537660415.1,286047003.9,N
1537660435.9,286047003.6,N
1537660455.7,286047004.2,N
1537660475.5,286047003.7,N
1537660495.4,286047003.9,N
1537660515.2,286047003.8,N
1537660535.0,286047003.9,N
1537660535.9,286047003.9,N
1537660555.8,286047004.4,N
1537660575.6,286047002.5,N
1537660595.5,286047002.6,N
1537660615.3,286047000.0,N
1537660635.1,286047002.2,N
1537660655.9,286047002.0,N
1537660675.7,286047000.6,N
1537660695.5,286046998.5,N
1537660715.4,286047004.0,N
1537660735.2,286047001.8,N
1537660755.1,286047004.1,N
1537660756.0,286047004.1,N
1537660775.8,286047001.3,N
1537660795.6,286047003.7,N
